Regional Weather Roundup
Issued by NWS State College, PA

Home | Current Version | Previous Version | Text Only | Print | Product List | Glossary On
Versions: 1 2 3 4 5 6 7 8 9 10 11 12 13 14 15 16 17 18 19 20 21 22 23 24 25 26 27 28 29 30 31 32 33 34 35 36 37 38 39 40 41 42 43 44 45 46 47 48 49 50
000
ASUS41 KCTP 260603
RWRCTP

REGIONAL WEATHER ROUNDUP
NATIONAL WEATHER SERVICE STATE COLLEGE PA
200 AM EDT SUN MAR 26 2017

Note: "fair" indicates few or no clouds below 12,000 feet with no
significant weather and/or obstructions to visibility.

* = STATION THAT DOES NOT REPORT PRECIPITATION /E.G. RAIN...SNOW...ETC/
    THUNDER OR FOG.

PAZ002>004-007>009-013>016-020>023-029>032-260700-
WESTERN PENNSYLVANIA

CITY           SKY/WX    TMP DP  RH WIND       PRES   REMARKS
ERIE           PTCLDY    37  35  92 NE9       30.16F
MEADVILLE      CLEAR     52  47  83 E9        30.13F
FRANKLIN*      MOCLDY    54  46  76 E10       30.16F
NEW CASTLE     CLOUDY    59  51  75 E5        30.12F
BEAVER COUNTY  NOT AVBL
BUTLER*        PTCLDY    57  48  72 E10       30.14S
PITTSBURGH INT MOCLDY    61  52  72 E7        30.11S
PITTSBURGH     MOCLDY    61  49  64 E7        30.11F
INDIANA*       PTCLDY    54  48  82 E8G14     30.19S
LATROBE        PTCLDY    63  50  63 NE6       30.14S
WASHINGTON CO* PTCLDY    54  48  82 CALM      30.12F
$$

PAZ004>006-010>012-017>019-024>028-033>037-041-042-045-046-049>053-260700-
CENTRAL PENNSYLVANIA

CITY           SKY/WX    TMP DP  RH WIND       PRES   REMARKS
BRADFORD       PTCLDY    40  38  93 E8        30.22S
DUBOIS         CLOUDY    47  40  76 E12       30.19R
CLEARFIELD       N/A    N/A N/A N/A MISG      30.24S
JOHNSTOWN      CLEAR     49  45  86 E7        30.18R
ALTOONA        CLOUDY    48  44  86 NE3       30.22S
STATE COLLEGE  CLOUDY    41  39  90 NE7       30.27R
WILLIAMSPORT   CLOUDY    43  38  82 CALM      30.31S
SELINSGROVE    CLOUDY    44  41  89 NE3       30.31S
FT INDIANTOWN  CLOUDY    44  43  93 E9        30.32R
CAPITAL CITY   MOCLDY    50  39  66 E13       30.30R
HARRISBURG     MOCLDY    48  41  76 E14G22    30.30R
YORK           CLOUDY    48  42  80 E9        30.28R
$$

PAZ038>040-043-044-047-048-054-055-060>062-067>071-260700-
EASTERN PENNSYLVANIA

CITY           SKY/WX    TMP DP  RH WIND       PRES   REMARKS
SCRANTON       CLOUDY    41  36  82 NE3       30.33R
MOUNT POCONO   CLOUDY    31  31 100 E9        30.32R
ALLENTOWN      CLOUDY    42  34  73 NE16      30.36S
QUAKERTOWN*    CLOUDY    41  39  93 E12G20    30.36R
READING        CLOUDY    46  41  82 E8        30.32R
LANCASTER      CLOUDY    46  41  82 E10       30.31R
COATESVILLE    MOCLDY    43  39  87 E22G32    30.31F
POTTSTOWN      CLOUDY    43  38  82 E7        30.35F
BLUE BELL      CLOUDY    43  37  81 E12       30.34S
DOYLESTOWN     CLOUDY    42  39  89 VRB3      30.35F
WILLOW GROVE   NOT AVBL
NORTH PHILA    CLOUDY    45  39  79 E12       30.38S
PHILADELPHIA   CLOUDY    45  38  76 E15G22    30.35S
$$




USA.gov is the U.S. government's official web portal to all federal, state and local government web resources and services.